Tracking 19846 objects as of 18-Sep-2019
HD Live streaming from Space Station
objects crossing your sky now

FENGYUN 1C DEB

Track FENGYUN 1C DEB now!
10-day predictions


NORAD ID: 31995
Int'l Code: 1999-025CPY
Perigee: 837.1 km
Apogee: 1,050.2 km
Inclination: 98.4 °
Period: 103.8 minutes
Semi major axis: 7314 km
RCS: 0.0104 m2 (small)
Launch date: May 10, 1999
Source: People's Republic of China (PRC)
Launch site: Taiyaun Space Center, China (TSC)

Note: This is SATELLITE DEBRIS
aabbcc
Your satellite tracking list
Your tracking list is empty




NASA's NSSDC Master Catalog

Two Line Element Set (TLE):
1 31995U 99025CPY 19257.58463443 +.00000689 +00000-0 +56290-3 0  9991
2 31995 098.4257 178.2847 0145629 112.2685 249.3990 13.87757185312894
Source of the keplerian elements: AFSPC